SBI110 UIII-UNNT

Flight info

Callsign SBI110
Flight time N/A
Altitude 36000
Route BOGRA A815 TUTEK M97 LIBZI R497 LONKA A822 LAPAK B151 KESED B926 NATIR
Aircraft B738/M-SDRWY/L

Departure

Time 2026-05-05 11:05
Airport Irkutsk International Airport (UIII)

Arrival

Time N/A
Airport Novosibirsk Tolmachevo Airport (UNNT)
Time Latitude Longitude Altitude Speed Heading
2026-05-05 10:43 52.27081 104.36972 1680 ft 0 kts 199°
2026-05-05 10:55 52.27081 104.36973 1680 ft 0 kts 199°
2026-05-05 10:55 52.27081 104.36972 1680 ft 0 kts 199°
2026-05-05 10:55 52.27078 104.36970 1680 ft 0 kts 199°
2026-05-05 10:55 52.27074 104.36968 1680 ft 0 kts 199°
2026-05-05 10:56 52.27071 104.36967 1680 ft 0 kts 199°
2026-05-05 10:56 52.27068 104.36965 1680 ft 0 kts 199°
2026-05-05 10:56 52.27066 104.36964 1680 ft 0 kts 199°
2026-05-05 10:57 52.27053 104.36959 1680 ft 3 kts 177°
2026-05-05 10:58 52.27024 104.36990 1680 ft 6 kts 126°
2026-05-05 10:58 52.27002 104.37076 1680 ft 9 kts 111°
2026-05-05 10:58 52.26993 104.37196 1680 ft 12 kts 75°
2026-05-05 10:58 52.26987 104.37340 1680 ft 13 kts 112°
2026-05-05 10:59 52.26946 104.37497 1680 ft 16 kts 113°
2026-05-05 10:59 52.26897 104.37678 1680 ft 18 kts 113°
2026-05-05 10:59 52.26844 104.37876 1680 ft 20 kts 113°
2026-05-05 10:59 52.26786 104.38097 1680 ft 22 kts 113°
2026-05-05 11:00 52.26723 104.38335 1680 ft 23 kts 112°
2026-05-05 11:00 52.26659 104.38577 1680 ft 23 kts 113°
2026-05-05 11:00 52.26593 104.38826 1680 ft 24 kts 112°
2026-05-05 11:00 52.26525 104.39078 1680 ft 24 kts 113°
2026-05-05 11:01 52.26456 104.39338 1680 ft 24 kts 113°
2026-05-05 11:01 52.26386 104.39600 1680 ft 24 kts 112°
2026-05-05 11:01 52.26320 104.39848 1680 ft 23 kts 113°
2026-05-05 11:01 52.26258 104.40080 1680 ft 21 kts 113°
2026-05-05 11:02 52.26200 104.40301 1680 ft 21 kts 113°
2026-05-05 11:02 52.26142 104.40519 1680 ft 21 kts 113°
2026-05-05 11:02 52.26081 104.40747 1680 ft 22 kts 113°
2026-05-05 11:02 52.26018 104.40984 1680 ft 20 kts 112°
2026-05-05 11:03 52.26017 104.41166 1680 ft 13 kts 37°
2026-05-05 11:03 52.26057 104.41200 1680 ft 0 kts 23°
2026-05-05 11:03 52.26059 104.41202 1680 ft 1 kts 23°
2026-05-05 11:04 52.26078 104.41215 1680 ft 4 kts 23°
2026-05-05 11:04 52.26115 104.41243 1680 ft 7 kts 24°
2026-05-05 11:04 52.26168 104.41283 1680 ft 9 kts 24°
2026-05-05 11:04 52.26234 104.41269 1680 ft 11 kts 302°
2026-05-05 11:05 52.26287 104.41086 1680 ft 40 kts 292°
2026-05-05 11:05 52.26505 104.40256 1680 ft 115 kts 294°
2026-05-05 11:05 52.26919 104.38743 1693 ft 173 kts 297°
2026-05-05 11:05 52.27473 104.36977 2431 ft 175 kts 302°
2026-05-05 11:06 52.27953 104.35182 3220 ft 181 kts 292°
2026-05-05 11:06 52.28419 104.33202 3630 ft 196 kts 295°
2026-05-05 11:06 52.28984 104.31054 3918 ft 218 kts 296°
2026-05-05 11:06 52.29665 104.28721 4404 ft 235 kts 306°
2026-05-05 11:07 52.30925 104.27032 5142 ft 242 kts 339°
2026-05-05 11:07 52.32531 104.26326 6001 ft 247 kts 343°
2026-05-05 11:07 52.34182 104.25491 6820 ft 253 kts 340°
2026-05-05 11:07 52.35835 104.24567 7702 ft 256 kts 340°
2026-05-05 11:08 52.37524 104.23618 8568 ft 259 kts 339°
2026-05-05 11:08 52.39200 104.22665 9418 ft 261 kts 339°
2026-05-05 11:08 52.40918 104.21684 10256 ft 263 kts 339°
2026-05-05 11:08 52.42676 104.20674 10648 ft 282 kts 339°